Regional Weather Roundup
Issued by NWS

Home | Current Version | Previous Version | Text Only | Print | Product List | Glossary Off
Versions: 1 2 3 4 5 6 7 8 9 10 11 12 13 14 15 16 17 18 19 20 21 22 23 24 25 26 27 28 29 30 31 32 33 34 35 36 37 38 39 40 41 42 43 44 45 46 47 48 49 50

000
ASUS43 KFSD 211210
RWRSD

WEATHER ROUNDUP FOR SOUTH DAKOTA
NATIONAL WEATHER SERVICE SIOUX FALLS SD
700 AM CDT TUE APR 21 2015

NOTE: "FAIR" INDICATES FEW OR NO CLOUDS BELOW 12,000 FEET WITH NO
SIGNIFICANT WEATHER AND/OR OBSTRUCTIONS TO VISIBILITY.


SDZ001>005-009-010-012>017-211300-
NORTHWEST AND NORTH CENTRAL SOUTH DAKOTA

CITY           SKY/WX    TMP DP  RH WIND       PRES   REMARKS
BUFFALO          N/A     36  22  56 W5        29.70F
FAITH            N/A     33  21  61 NE10      29.80R WCI  25
MOBRIDGE       CLOUDY    36  25  64 N9        29.81R
$$

SDZ012>016-024>037-041>051-057-063-072>074-211300-
SOUTHWEST AND SOUTH CENTRAL SOUTH DAKOTA

CITY           SKY/WX    TMP DP  RH WIND       PRES   REMARKS
RAPID CTY ARPT CLEAR     25  19  78 CALM      29.77F
PIERRE         CLOUDY    36  21  54 N14       29.81R
CUSTER         PTCLDY    29  17  61 W8        29.82F WCI  21
ELLSWORTH AFB  CLEAR     37  21  52 W9        29.75F
PHILIP         CLOUDY    35  50 100 W8        29.81R WCI  29
PINE RIDGE     CLEAR     29  20  69 W5        29.83F WCI  24
SPEARFISH      FAIR      45  18  33 MISG      29.79R
WINNER         FAIR      37  21  52 SW9       29.79S
$$

SDZ004>011-016>023-039-040-211300-
NORTHEAST SOUTH DAKOTA

CITY           SKY/WX    TMP DP  RH WIND       PRES   REMARKS
ABERDEEN       CLOUDY    34  23  64 NW15      29.79S WCI  24
WATERTOWN      CLOUDY    31  24  75 NW17G26   29.72R WCI  19
BROOKINGS      MOCLDY    30  25  80 NW15      29.74R WCI  19
SISSETON         N/A     34  26  72 NW20G30   29.69R WCI  23
$$

SDZ017-020-022-023-036>040-048>070-211300-
SOUTHEAST SOUTH DAKOTA

CITY           SKY/WX    TMP DP  RH WIND       PRES   REMARKS
SIOUX FALLS    PTCLDY    29  16  58 NW9       29.76R WCI  20
HURON          CLOUDY    33  23  66 N13       29.80R WCI  24
CHAMBERLAIN    PTCLDY    28  18  68 W8        29.81R WCI  19
MITCHELL       CLEAR     29  16  58 NW8       29.82R WCI  21
YANKTON        CLEAR     37  18  44 W16       29.78R
$$

ABBREVIATIONS USED IN REMARKS
   TC - TEMPERATURE IN CELSIUS
  WCI - WIND CHILL INDEX
   HX - HEAT INDEX
  VSB - VISIBILITY



USA.gov is the U.S. government's official web portal to all federal, state and local government web resources and services.